Regional Weather Roundup
Issued by NWS Green Bay, WI

Home | Current Version | Previous Version | Graphics & Text | Print | Product List | Glossary Off
Versions: 1 2 3 4 5 6 7 8 9 10 11 12 13 14 15 16 17 18 19 20 21 22 23 24 25 26 27 28 29 30 31 32 33 34 35 36 37 38 39 40 41 42 43 44 45 46 47 48 49 50

000
ASUS43 KGRB 052010
RWRGRB

NORTH-CENTRAL AND NORTHEAST WISCONSIN REGIONAL WEATHER ROUNDUP
NATIONAL WEATHER SERVICE GREEN BAY WI
300 PM CDT TUE MAY 05 2015

WIZ005-009-010>012-018-019-052100-
NORTH CENTRAL WISCONSIN

CITY           SKY/WX    TMP DP  RH WIND       PRES   REMARKS
IRONWOOD       SUNNY     72  25  17 SE6       30.19F
MANITOWISH WTR SUNNY     69  32  26 SW9G17    30.23F
ARBOR VITAE    SUNNY     72  31  21 S10G17    30.23F
EAGLE RIVER    SUNNY     69  22  17 CALM      30.24F
LAND O LAKES   SUNNY     71  25  17 S8        30.25F
RHINELANDER    SUNNY     69  30  23 SE8       30.25F
PHILLIPS       SUNNY     69  31  24 SE12G21   30.23F
ANTIGO         SUNNY     65  31  27 SE12G21   30.27F
TOMAHAWK       SUNNY     69  29  22 SE5       30.25F
MERRILL        SUNNY     69  27  20 S13G20    30.25F
$$

WIZ013-073-052100-
NORTHEAST WISCONSIN

CITY           SKY/WX    TMP DP  RH WIND       PRES   REMARKS
IRON MOUNTAIN  SUNNY     69  28  21 E8        30.26F
MARINETTE      SUNNY     61  32  33 SE7       30.30F
OCONTO         SUNNY     67  27  22 E8        30.29F
$$

WIZ017-030-035>037-045-052100-
CENTRAL WISCONSIN

CITY           SKY/WX    TMP DP  RH WIND       PRES   REMARKS
MEDFORD        SUNNY     67  26  21 SE13G18   30.24F
WAUSAU         MOSUNNY   69  19  15 SE14G22   30.24F
MOSINEE        SUNNY     66  25  20 SE14G20   30.26F
MARSHFIELD     PTSUNNY   67  29  24 SE14G24   30.25S
WISC RAPIDS    CLOUDY    64  31  28 E15G21    30.26F
STEVENS POINT  PTSUNNY   64  24  22 SE17G23   30.26F
WAUPACA        PTSUNNY   66  30  26 SE14      30.27F
SHAWANO        MOSUNNY   68  21  16 SE12      30.28F
CLINTONVILLE   MOSUNNY   64  18  16 SE12      30.27F
$$

WIZ038-039-048-051-052100-
FOX VALLEY

CITY           SKY/WX    TMP DP  RH WIND       PRES   REMARKS
NWS GREEN BAY  MOSUNNY   65  23  20 E12       30.29F
APPLETON       PTSUNNY   64  36  34 SE14      30.28F
OSHKOSH        CLOUDY    60  45  57 SE10      30.27F
FOND DU LAC    CLOUDY    57  45  64 E12       30.28F
$$

WIZ022-050-052-052100-
EAST CENTRAL WISCONSIN

CITY           SKY/WX    TMP DP  RH WIND       PRES   REMARKS
STURGEON BAY   MOSUNNY   63  25  23 E12       30.33S
MANITOWOC      MOSUNNY   58  35  42 VRB5      30.31F
SHEBOYGAN      PTSUNNY   54  43  66 SE7       30.30F
$$

LMZ563-521-522-541>543-052100-
LAKESHORE

STATION/POSITION TIME  TEMP    WIND        PRES    VSBY  WAVE
                       AIR SEA DIR/SP/G                  HT/PER
                 (UTC) (F)     (DEG/KT/KT) (MB)    (MI)  (FT/S)
SHEBOYGAN LKSHOR 2000   44      10/  7/  8 1026.6F
KEWAUNEE LKSHORE 2000   47      30/  6/  8 1025.6S
NORTHPORT PIER   2000   51     120/  3/  5 1026.4S
CHAMBERS ISLAND  2000   49     360/  5/  9 1026.4F
MENOMINEE LKSHOR 2000   50      30/  8/  8 1027.0R
$$



USA.gov is the U.S. government's official web portal to all federal, state and local government web resources and services.